Weather in Rishiri

Japan     45°10′41″N   141°13′44″E
temp.,
°C
wind,
m/s
gust,
m/s
humid.,
%
clouds,
%
prec.,
mm/h
press.,
hPa
HPBL,
m
19 april, mon
mon1900:00+4n91297100 2.8 988931
03:00+3nnw121497100 4.8 988795
06:00+3nw121797100 5.6 9891067
09:00+3nw121897100 7.8 9911194
12:00+5wnw81188100 2.4 992808
15:00+4nnw5594100 2.6 993202
18:00+4wsw3694100 0.2 996167
21:00+6w45835 0.2 99781
20 april, tue
tue2000:00+6sw45815 0.0 99852
03:00+7ssw56835 0.0 99871
06:00+7sw5682100 0.0 99877
09:00+5wnw91082100 0.2 999694
12:00+4wnw1516602 1.8 10021413
15:00+4w14175446 1.8 10032753
18:00+4w13155747 0.1 10032088
21:00+5wnw15186284 0.1 10051497
21 april, wed
wed2100:00+5wnw13166698 0.1 1007948
03:00+6wnw14176317 0.1 1007981
06:00+5nw12146911 0.0 1009901
09:00+5nw8137398 0.0 10111466
12:00+4nnw101670100 0.0 10141528
15:00+4nnw91577100 0.0 10151020
18:00+5nnw91774100 0.0 10161022
21:00+5nnw10207880 0.0 10181080
22 april, thu
thu2200:00+4n798671 0.0 1019604
03:00+4nne7117647 0.0 10211029
06:00+4ne897369 0.0 1024911
09:00+4ene44695 0.0 1026593
12:00+3nne23694 0.0 1026320
15:00+4nne22640 0.0 1025257
18:00+5ne23650 0.0 1026197
21:00+4ese43751 0.0 1026225
23 april, fri
fri2300:00+4ese33790 0.0 1026164
03:00+4e11770 0.0 1025115
06:00+4se11770 0.0 1024112
09:00+5ssw11710 0.0 1024108
12:00+6sw12650 0.0 1023122
15:00+6ssw23640 0.0 1021155
18:00+7sw227485 0.0 102035
21:00+6sw3378100 0.0 101940